Theta_e
306 306 307 307 307 307 307 307 306 306 306 306 306 306 306 306 307 308 308 309 309 308 309 309 310 310 312 312 313 314 314 315 315 316 316 316 317 318 318 319 320 324 326 330 335 328 317 318 324 331 336 336 337 342 343 344 344 343 340 339 339 341 342 341 340 339 339 339 339 338 337 336 335 335 336 336 337 337 336 335 329 322 320 321 325 326
306 306 307 307 307 306 306 306 306 306 306 305 305 305 306 306 306 307 307 307 308 307 308 308 309 309 311 312 313 313 313 314 315 315 316 316 317 317 317 319 319 322 324 326 336 336 322 318 322 332 340 340 340 342 342 343 344 343 340 339 338 340 341 341 340 339 338 338 338 337 336 335 336 336 336 336 337 336 337 337 330 321 320 326 330 332
307 307 307 307 307 306 305 305 305 305 305 305 306 306 306 306 306 307 307 307 307 306 306 308 308 309 310 311 312 313 313 313 314 314 315 315 316 317 316 317 318 320 324 323 333 340 329 317 320 332 342 343 342 343 342 342 344 344 342 340 339 340 340 340 340 339 338 337 337 336 335 336 336 336 336 337 337 336 338 338 334 325 323 327 332 335
308 308 308 308 306 305 305 305 305 305 305 305 306 306 306 306 306 306 307 307 306 306 306 307 307 308 309 310 310 312 313 313 313 313 314 314 314 316 316 317 318 319 322 324 330 340 335 324 322 331 339 341 342 342 342 342 344 344 343 340 340 340 340 341 340 339 336 336 336 334 335 336 336 337 336 336 337 337 337 338 337 330 326 329 331 332
307 307 308 307 306 305 305 305 305 305 306 306 306 306 306 306 306 306 306 306 306 306 306 306 306 307 308 308 309 310 312 312 313 313 314 314 313 315 316 316 318 318 321 324 327 336 340 334 326 327 334 338 339 338 339 341 343 344 343 341 341 341 341 341 340 336 331 334 335 334 336 337 337 337 336 336 336 337 337 339 338 334 329 330 329 329
307 308 308 306 306 305 305 305 306 306 306 306 306 306 306 306 305 305 305 305 306 306 307 306 306 307 308 308 309 309 310 311 313 314 314 314 314 314 315 315 317 318 319 323 325 331 342 341 333 329 331 335 336 337 339 341 343 344 343 341 342 342 342 341 340 335 329 331 333 334 338 338 338 337 337 337 337 337 338 339 339 336 333 332 331 328
307 307 307 306 306 306 305 306 306 306 306 305 306 306 306 305 305 305 305 305 305 306 307 307 306 307 308 309 309 309 309 310 312 313 314 315 315 314 315 315 316 318 319 322 324 328 338 344 342 337 333 333 335 338 341 341 342 343 343 342 342 343 342 341 339 335 330 331 333 336 339 339 339 338 337 337 337 337 337 338 338 337 336 335 334 329
307 307 306 306 306 306 306 306 306 306 305 305 306 305 305 305 304 305 305 305 306 306 307 307 306 306 307 309 310 310 310 310 310 312 313 315 315 315 315 315 315 316 318 320 322 327 334 341 346 344 338 335 334 338 340 341 342 343 343 343 343 343 342 341 339 335 332 333 335 337 339 339 339 338 338 337 336 336 336 337 338 338 337 338 336 332
307 306 306 306 306 306 306 306 307 306 305 305 306 305 305 305 305 305 305 305 306 306 306 306 306 306 306 308 310 310 310 310 311 311 312 314 315 315 315 316 316 315 317 318 319 324 330 337 344 344 340 339 339 337 335 337 340 340 342 344 343 343 342 341 340 336 334 334 334 338 340 340 339 338 338 336 336 336 336 336 338 338 338 338 337 334
308 308 308 307 306 306 307 307 307 306 305 306 306 305 305 305 305 305 305 305 306 306 306 306 307 306 306 307 308 309 309 310 311 311 312 313 314 315 316 316 316 315 317 317 318 320 327 336 339 339 339 341 340 336 332 335 338 340 343 343 343 343 342 342 341 337 335 334 334 338 340 340 340 338 338 336 337 338 336 336 338 338 338 338 338 335
309 309 308 307 307 307 307 307 307 307 306 306 306 305 306 306 306 306 305 306 306 305 306 306 307 306 306 307 308 309 310 310 310 311 312 313 313 315 315 316 315 315 317 317 319 319 324 334 338 337 338 341 341 340 341 340 339 342 344 343 343 343 342 342 342 338 336 335 333 338 340 341 340 339 338 337 337 338 337 337 338 338 338 338 338 336
309 309 308 308 308 308 307 307 308 308 307 306 306 306 306 306 306 306 306 306 305 305 306 306 306 306 306 307 308 309 310 310 310 311 311 312 313 315 315 315 314 314 315 315 318 320 323 330 337 339 341 343 343 342 343 342 340 343 344 343 344 344 343 344 342 339 338 336 334 338 341 341 340 340 339 338 338 338 337 337 337 338 338 338 338 337
309 309 309 308 308 308 307 307 307 308 307 306 306 306 306 306 306 306 305 305 305 305 306 306 306 306 306 307 308 309 309 310 310 311 311 312 314 314 314 314 314 314 315 315 316 318 321 327 337 340 340 343 345 342 341 342 342 343 343 344 344 343 344 343 341 341 340 336 334 337 340 341 341 340 339 339 339 338 337 337 337 338 338 339 339 337
310 310 309 308 308 308 307 307 307 307 307 306 306 306 306 305 305 305 305 304 305 305 306 306 306 306 306 307 308 308 308 310 311 311 311 311 312 313 313 314 314 314 316 317 317 319 321 326 335 337 334 340 344 340 339 341 342 342 342 343 344 344 343 343 343 343 341 338 337 336 339 341 341 340 340 340 339 338 337 337 337 338 339 339 338 337
310 310 309 308 308 308 307 307 307 307 307 307 307 307 306 306 305 305 304 304 304 305 306 306 306 306 306 307 308 308 309 309 310 310 310 311 311 311 312 313 313 314 316 317 319 321 324 327 333 332 329 338 343 337 336 341 342 342 342 343 343 344 344 343 343 343 342 341 340 336 339 341 341 341 341 341 340 338 338 336 336 337 337 337 338 337
309 310 309 308 308 307 307 307 307 307 307 307 307 306 306 307 306 305 305 305 305 305 306 306 307 307 307 308 308 308 309 309 310 310 309 310 310 311 312 313 313 313 314 316 317 320 324 330 334 332 330 338 342 337 336 340 342 341 341 342 343 344 344 343 343 344 344 343 340 338 339 341 342 342 341 341 340 339 338 336 335 336 335 336 337 337
310 311 309 308 307 306 307 308 307 307 307 307 307 306 307 307 306 306 306 306 306 305 305 306 306 307 307 308 308 308 309 309 309 310 310 310 310 310 312 313 313 313 312 315 318 319 322 330 336 337 337 340 342 339 336 338 341 341 341 342 343 343 344 344 344 344 344 344 342 340 340 340 342 342 341 341 340 340 338 337 336 335 334 335 336 336
310 310 309 308 308 307 308 308 307 307 307 306 306 306 306 306 306 306 305 306 306 305 305 304 305 306 306 307 308 308 309 309 309 309 310 311 311 310 312 313 313 313 313 316 319 318 319 326 334 339 341 342 342 339 336 336 340 341 341 342 342 343 344 343 344 344 344 344 343 342 341 341 342 342 341 341 340 340 339 338 337 335 334 334 334 335
309 309 310 308 308 309 308 307 307 307 307 306 306 306 306 306 307 306 305 305 306 306 306 305 304 305 306 307 308 308 309 309 309 310 310 310 311 312 313 313 313 313 315 317 319 318 316 319 329 338 342 343 344 342 339 338 340 341 341 342 342 343 343 343 344 344 344 344 343 342 342 341 342 342 342 341 341 340 339 339 339 337 334 333 333 334
308 309 311 309 307 307 307 306 307 307 307 306 306 306 305 306 306 306 305 306 305 306 306 305 305 305 306 307 308 309 310 309 310 310 310 310 312 313 313 314 315 316 319 320 320 323 322 320 324 335 341 342 342 343 342 340 340 340 341 341 341 342 343 343 343 343 343 343 342 342 342 342 342 342 342 341 341 341 340 340 339 337 335 332 332 333
308 308 310 309 307 307 307 307 307 307 307 306 305 305 306 306 306 305 306 306 306 306 306 306 306 306 307 308 308 309 310 311 311 311 311 312 314 315 315 317 318 319 322 323 323 324 326 325 324 330 338 340 340 341 342 341 341 341 341 341 341 342 342 343 343 343 343 343 342 342 342 341 342 342 342 341 341 341 340 340 339 338 336 333 331 333
308 308 309 309 308 308 308 308 307 307 307 306 306 306 306 306 305 305 305 306 307 306 306 307 307 306 307 309 309 309 311 312 312 312 313 315 316 317 318 319 320 321 322 323 324 324 326 328 327 327 332 338 341 341 342 342 341 341 341 341 341 341 342 342 342 342 342 343 343 342 341 341 341 342 341 341 341 341 340 340 339 338 337 334 332 334
307 308 308 309 309 309 310 309 307 306 306 306 306 306 306 306 305 304 305 306 307 306 305 306 307 307 308 311 312 311 311 313 313 314 314 315 316 317 318 319 319 320 321 321 323 324 324 326 328 328 329 334 339 342 342 341 341 341 341 341 341 341 341 341 342 342 342 343 343 342 342 342 341 341 341 341 341 341 340 340 339 338 337 334 333 334
307 307 309 310 309 309 310 309 306 306 306 306 306 306 305 306 305 305 306 306 307 307 306 306 307 307 308 312 314 313 313 314 314 314 314 315 315 316 317 318 319 319 320 320 321 322 323 324 326 328 329 330 336 341 342 342 341 341 340 340 341 341 341 341 342 342 342 342 342 342 342 342 341 341 341 341 341 341 341 340 338 338 337 335 333 335
308 308 309 310 311 311 312 310 308 307 307 307 307 307 305 305 306 306 306 307 307 307 307 307 307 307 309 313 313 312 313 313 313 314 314 314 315 316 317 317 318 318 319 320 321 322 322 323 325 328 329 329 332 337 342 342 341 341 340 340 340 340 340 341 341 341 342 342 342 342 342 342 342 341 341 341 341 341 340 340 339 338 337 335 334 335
307 309 309 310 312 312 313 312 310 308 307 307 307 307 306 305 306 306 306 307 307 307 307 307 307 307 310 312 312 312 312 311 312 314 314 313 314 314 316 317 318 319 319 320 321 322 323 323 324 327 330 331 331 334 339 342 342 341 341 340 340 340 340 340 340 341 341 342 342 342 342 342 341 341 341 341 341 340 341 340 339 337 336 335 334 334
307 309 309 310 311 311 312 312 308 306 307 308 307 307 307 306 306 306 306 306 306 307 307 307 308 308 309 311 311 312 312 311 312 313 313 313 313 313 314 316 317 318 319 320 321 322 323 323 324 325 327 331 332 333 337 341 342 341 341 341 339 339 339 340 340 341 341 342 341 342 342 341 341 341 341 341 341 341 340 339 338 337 335 334 334 334
306 309 310 310 310 310 310 310 308 307 307 307 307 307 307 306 306 306 306 306 306 306 307 308 309 309 308 309 310 311 311 312 311 312 312 312 312 312 312 313 314 316 318 320 321 322 323 323 324 324 325 328 332 334 337 340 341 341 341 340 340 339 339 339 340 340 341 341 341 341 341 341 341 340 340 340 340 340 340 339 339 337 335 334 334 334
307 309 311 311 310 309 309 310 310 309 308 308 307 307 307 307 307 307 307 307 307 307 307 308 309 309 308 308 309 310 310 311 312 311 312 312 312 311 311 312 314 315 315 317 319 321 322 323 323 324 325 328 333 334 336 339 340 340 340 340 340 339 339 339 339 340 340 341 341 341 341 341 341 340 340 340 339 339 340 339 338 337 335 334 333 334
309 310 311 311 310 310 310 310 310 310 309 309 308 307 307 307 307 307 307 307 307 308 307 308 309 309 309 309 309 310 310 311 312 311 311 311 311 311 311 312 313 314 314 315 317 319 321 322 323 323 323 327 332 335 337 339 340 340 340 340 340 339 339 339 339 339 339 339 340 341 341 341 340 340 339 339 339 339 340 339 338 337 336 334 333 334
309 310 311 311 310 311 311 311 311 310 309 309 309 308 308 308 307 308 308 308 308 308 307 308 308 308 309 309 310 310 310 310 311 311 311 311 311 311 311 312 313 313 314 314 316 318 320 322 323 323 322 324 330 336 337 338 339 340 339 339 339 339 339 339 339 339 338 338 339 341 341 341 340 339 339 339 339 339 340 339 338 337 336 335 334 335
309 310 311 311 312 313 312 312 311 310 309 310 310 309 309 309 309 308 308 308 308 308 308 308 308 308 308 309 310 310 310 310 310 311 311 310 310 311 311 312 312 313 313 314 315 317 319 321 322 324 323 323 327 334 338 339 340 340 339 339 339 339 339 339 339 339 338 338 339 340 341 340 340 339 339 339 339 339 340 339 338 337 337 336 335 335
308 310 311 311 312 314 312 311 311 311 311 311 311 311 311 310 309 309 309 309 309 308 308 308 308 308 308 309 309 309 310 310 310 310 310 310 311 311 312 311 311 312 313 314 315 316 319 321 322 324 325 323 325 332 337 339 340 340 339 338 338 339 339 339 339 338 338 338 338 339 340 339 339 339 339 338 338 339 340 339 338 337 337 336 336 335
310 310 312 312 312 314 313 311 311 313 314 313 311 311 312 312 311 309 309 309 309 309 309 308 309 309 309 309 309 310 310 310 310 310 310 311 312 311 311 311 311 312 314 315 317 319 320 321 322 323 325 325 325 329 335 339 340 340 339 336 336 338 339 339 338 338 338 338 338 339 339 339 339 339 338 338 338 339 340 339 338 337 336 335 335 334
311 311 312 312 312 314 313 312 313 315 315 313 310 309 311 312 312 311 310 310 309 309 309 309 309 309 309 309 310 310 310 310 309 310 310 310 311 311 312 313 314 316 318 320 321 321 322 322 323 324 325 326 325 327 334 339 340 341 341 339 339 339 339 338 338 338 338 338 338 338 339 338 338 338 338 338 338 339 339 338 337 337 336 335 335 334
312 313 313 313 313 315 315 315 316 316 314 311 310 309 310 312 313 312 312 311 310 310 310 309 309 309 309 309 310 309 309 309 309 309 310 310 311 313 315 318 320 321 323 323 323 323 323 323 324 325 326 327 327 326 331 338 340 342 342 341 341 340 339 338 338 338 338 338 338 338 338 338 338 338 338 338 338 339 338 337 337 337 336 335 335 333
314 314 314 314 315 316 316 317 317 316 315 314 312 311 311 313 314 313 313 313 311 311 310 309 309 309 309 309 309 310 310 311 312 312 313 314 316 319 321 323 324 324 325 326 325 325 325 325 326 327 327 329 328 327 331 338 340 341 341 341 340 340 339 339 338 338 337 337 337 338 338 337 336 337 338 338 338 338 338 337 337 337 336 336 334 332
315 314 315 315 315 315 316 317 317 317 317 316 313 312 313 314 315 314 313 313 312 313 313 312 312 311 312 312 313 315 316 316 316 316 318 321 323 325 325 325 326 326 326 327 327 326 327 327 328 328 329 330 328 327 332 338 340 340 341 340 340 339 339 339 338 338 338 337 337 337 338 337 336 336 337 338 338 338 337 337 337 337 337 336 333 332
314 314 314 316 315 315 317 318 318 318 317 314 312 312 314 315 316 315 313 313 314 317 318 317 316 316 317 318 318 319 320 319 319 318 320 324 325 325 325 326 326 326 326 327 326 326 327 328 328 329 330 330 328 326 331 338 339 339 340 339 339 340 339 339 338 338 338 337 337 337 336 336 335 335 336 338 338 338 338 337 337 337 337 335 332 332
314 313 314 315 315 316 317 317 317 317 315 312 311 313 315 315 316 315 315 316 317 317 318 318 318 318 319 320 320 320 320 320 320 319 321 324 324 324 325 326 326 326 326 326 326 327 327 327 328 329 330 330 328 327 333 338 339 339 340 339 339 339 339 339 339 338 338 337 337 337 336 336 335 335 336 338 338 338 337 337 337 337 335 333 331 332
313 313 313 314 315 315 317 317 317 316 313 311 311 314 315 315 315 316 317 317 316 315 316 318 319 319 320 320 320 321 321 322 322 322 323 323 323 324 325 326 326 326 326 326 327 327 328 329 330 331 331 331 329 330 335 338 338 339 340 339 339 340 339 339 339 338 338 338 338 337 336 336 335 335 336 337 338 338 337 337 336 336 334 333 332 333
313 313 313 314 314 315 316 316 317 317 313 311 312 313 314 315 317 317 317 316 316 316 317 317 318 319 320 320 321 322 323 322 322 322 322 322 322 324 325 326 326 326 326 327 328 329 330 332 332 332 332 332 331 334 337 338 338 338 339 339 339 339 339 339 339 338 338 338 337 337 337 336 335 335 336 337 338 338 337 336 336 335 334 333 333 333
312 312 313 313 313 315 315 316 317 317 313 312 313 313 313 315 317 317 317 317 317 318 318 318 319 320 320 320 320 321 322 322 321 321 321 322 323 324 325 326 326 326 326 328 329 330 331 333 333 333 333 333 334 337 339 339 339 339 339 339 339 339 339 339 339 338 338 337 337 337 337 337 336 336 337 337 337 337 336 336 336 335 334 334 333 333
313 312 312 312 313 314 315 315 316 316 313 313 314 314 314 315 316 317 317 317 317 317 318 318 319 319 319 320 320 320 321 321 321 321 322 323 324 324 324 325 325 325 326 328 329 330 332 334 334 334 334 335 336 338 339 339 339 339 339 339 339 338 338 339 338 338 338 337 337 337 337 337 337 337 337 337 337 337 335 336 336 336 335 334 334 334
312 312 311 312 313 314 314 314 314 314 314 313 315 315 314 315 316 316 316 317 317 317 318 318 318 319 319 319 320 320 321 321 321 322 323 324 325 324 324 325 326 325 326 328 329 330 333 335 336 336 336 337 338 339 339 339 339 339 339 339 338 338 338 338 338 338 338 337 336 336 337 337 337 337 337 337 337 336 335 335 337 336 335 334 334 335
312 312 312 312 313 314 314 314 314 314 313 313 315 315 313 313 314 315 315 316 316 316 318 319 319 319 319 320 320 321 321 320 321 322 324 325 325 324 324 325 325 326 326 327 328 330 333 335 336 336 337 338 339 339 340 340 339 339 339 339 339 339 339 338 338 337 337 337 337 337 337 337 337 337 336 335 335 335 334 335 336 337 335 334 335 334
311 312 311 312 312 313 315 315 314 314 312 313 315 315 313 312 313 314 315 315 315 315 317 318 319 320 320 319 319 320 320 320 321 322 324 324 325 325 326 325 325 326 327 328 328 329 332 334 334 333 334 336 338 339 340 340 339 338 339 339 339 339 339 339 338 337 337 337 337 338 338 338 337 336 334 334 334 334 333 334 336 336 335 335 335 335
311 311 311 310 311 313 314 314 313 312 311 312 314 314 314 313 313 312 313 313 313 313 314 315 317 318 319 319 319 319 320 320 321 322 323 323 324 325 326 325 325 326 328 329 330 330 331 333 332 331 332 335 338 339 340 340 339 339 339 338 338 338 338 339 338 337 337 337 338 337 337 338 338 335 333 333 334 334 334 334 335 336 336 335 335 335
310 310 310 309 310 312 314 314 312 311 311 311 313 314 315 314 313 312 312 312 313 313 312 312 313 315 317 319 320 319 320 320 320 322 323 324 324 324 325 325 325 326 327 329 330 330 330 331 332 332 333 336 338 338 338 339 338 339 339 339 338 338 338 338 338 338 338 338 338 337 337 338 337 335 333 333 333 334 335 335 334 335 336 336 335 335
310 310 309 309 310 311 312 312 311 310 310 311 312 314 315 314 313 312 312 312 312 312 312 312 311 311 314 317 320 321 321 321 321 321 322 324 325 325 325 325 325 326 328 328 329 331 331 331 331 333 334 335 336 336 337 337 337 337 337 338 338 338 338 338 338 338 338 338 337 337 337 337 335 333 333 332 332 333 334 334 334 335 336 336 336 335
310 309 309 309 310 310 310 310 310 310 310 311 313 315 316 315 314 313 313 312 312 312 311 311 310 310 311 315 319 321 322 322 322 321 322 323 325 325 326 325 325 325 327 328 328 329 330 330 331 331 332 333 334 334 335 336 336 335 336 336 337 337 338 338 338 338 337 337 337 337 337 336 334 333 333 333 333 333 333 333 334 335 334 334 334 334
Wind_Speed
3 6 7 7 7 5 4 6 8 8 7 8 9 9 10 10 10 9 9 7 6 8 11 14 16 14 14 15 15 16 15 14 17 19 22 22 22 22 23 24 24 25 25 22 22 28 30 28 28 28 26 23 22 22 24 24 23 26 30 30 29 27 24 24 23 21 20 17 17 18 19 19 18 18 18 17 15 14 15 16 16 19 20 19 18 18
3 7 7 7 7 6 5 6 7 8 8 10 9 10 11 10 11 11 10 8 7 8 10 14 15 15 15 13 13 15 15 16 17 18 19 21 21 22 24 25 25 23 23 22 21 24 28 27 28 26 23 23 24 24 24 24 22 24 30 31 30 29 26 25 23 21 19 17 17 18 18 18 17 18 18 17 16 15 15 16 17 19 21 20 19 18
6 8 7 6 4 5 7 7 8 10 10 10 9 9 9 9 9 11 10 10 9 8 9 13 14 14 16 16 15 15 16 18 20 19 20 22 22 23 24 25 26 24 23 24 23 23 27 29 29 27 23 22 24 25 24 23 22 23 28 31 30 30 28 25 22 20 18 17 18 19 18 18 17 17 17 16 16 16 16 17 18 19 20 20 19 18
5 3 1 1 3 5 8 9 9 9 9 9 9 8 9 9 9 8 7 7 7 8 10 13 13 12 14 16 15 15 18 20 20 20 19 19 21 23 25 24 25 26 25 25 24 23 26 29 30 32 28 22 21 23 23 23 23 24 27 31 30 29 28 24 21 20 19 17 18 19 17 17 17 16 17 17 17 17 17 19 19 19 20 20 20 21
10 7 1 3 6 8 10 9 9 9 8 10 11 10 10 9 9 7 6 5 6 9 12 12 11 10 13 16 15 15 18 20 20 21 20 19 20 21 22 24 24 25 25 25 25 24 25 28 32 34 32 26 23 25 26 25 24 23 26 31 28 25 25 22 20 22 22 19 19 19 17 18 18 17 18 20 20 19 19 21 21 20 21 20 21 21
11 9 6 8 9 10 11 10 10 9 7 9 11 12 11 10 10 9 10 9 7 9 12 13 11 9 12 18 17 15 16 18 20 21 22 22 22 21 21 23 24 23 23 23 24 24 23 26 30 33 34 31 27 27 28 26 24 23 25 29 26 21 21 22 22 24 26 24 23 22 20 21 21 20 21 21 22 22 21 22 23 21 21 20 20 21
8 6 6 10 11 11 12 10 11 9 7 8 5 6 9 10 11 12 12 10 7 8 6 8 10 8 9 14 15 15 16 19 20 19 21 24 24 23 23 24 25 25 23 22 22 23 23 24 27 31 34 35 31 27 25 24 24 23 23 27 26 21 20 23 25 27 29 28 26 24 21 19 20 20 20 20 21 21 20 22 24 23 21 20 19 20
6 8 8 9 10 10 10 9 10 10 9 7 1 2 7 9 11 12 11 10 8 9 6 6 10 9 8 10 10 12 15 18 21 20 20 22 23 23 23 24 26 27 25 23 22 21 23 24 25 28 32 35 32 26 24 25 26 25 23 25 26 23 22 24 27 30 31 31 28 25 20 18 18 20 20 20 22 21 21 23 24 23 22 20 19 19
4 7 8 9 10 9 9 9 9 10 10 8 3 4 8 9 11 11 10 9 8 9 8 9 11 9 9 10 10 11 13 15 18 20 20 21 23 23 23 23 24 26 27 27 25 22 22 24 25 27 29 31 29 25 26 28 29 27 23 23 25 24 23 25 28 32 33 32 30 26 20 18 19 20 20 20 21 22 23 25 23 23 23 21 19 19
7 9 9 10 10 9 10 11 10 10 11 10 7 7 8 9 11 10 9 9 9 10 10 11 12 10 9 10 11 12 13 13 14 16 18 20 24 23 21 21 21 23 25 27 27 24 22 23 25 26 27 28 26 25 27 28 29 27 23 26 28 27 26 26 28 34 34 31 30 26 20 19 20 20 20 20 22 24 25 24 23 24 24 22 20 20
16 16 11 10 12 12 12 12 12 12 12 11 9 9 10 10 10 10 9 8 9 10 12 14 15 13 10 9 10 10 11 13 14 14 15 18 22 20 17 18 20 21 22 25 27 26 23 22 23 24 26 27 26 23 22 26 28 24 22 26 29 30 30 26 28 34 34 31 30 26 20 20 21 20 21 22 24 27 25 25 25 24 24 23 21 21
14 14 11 12 15 15 13 12 12 13 14 11 10 9 9 9 9 9 9 9 9 11 12 15 17 16 12 8 9 10 11 13 15 14 14 15 18 17 16 17 19 21 22 24 26 27 25 23 23 23 24 26 26 24 21 24 27 24 23 26 28 31 29 26 32 35 32 31 31 27 21 20 21 20 22 23 25 27 26 26 26 24 24 23 21 21
10 10 10 12 14 14 12 10 10 11 12 11 10 9 9 8 7 8 9 9 10 11 11 13 15 15 13 11 12 14 13 12 12 14 15 15 16 16 17 17 17 19 21 23 25 27 27 25 24 24 25 25 27 28 23 22 25 25 26 26 28 33 31 31 36 33 31 33 32 29 23 20 21 21 22 22 22 25 26 25 26 25 25 23 22 22
8 6 6 8 9 12 12 9 7 8 9 11 10 9 9 8 8 9 10 9 10 11 13 14 14 12 11 12 15 17 16 14 13 14 17 17 18 18 16 15 16 15 17 19 21 24 26 26 25 25 26 26 28 30 25 23 24 24 25 26 27 31 32 33 33 29 32 34 31 32 27 22 23 23 22 20 20 23 23 23 25 26 25 25 25 25
9 5 4 6 3 8 13 11 9 8 7 10 10 10 10 9 8 9 9 9 9 10 13 15 12 10 9 9 12 17 19 21 21 19 19 18 18 18 16 15 16 15 14 14 15 19 23 26 26 26 28 26 27 30 27 24 25 23 23 26 27 29 31 34 33 29 31 32 31 34 30 24 23 23 22 20 19 21 22 23 25 26 26 26 26 25
10 9 2 6 3 4 10 10 10 10 8 8 9 10 11 10 9 9 9 10 9 8 10 10 9 9 9 10 12 14 15 20 22 23 23 22 20 19 18 17 17 16 16 15 14 16 18 22 25 27 27 26 26 29 28 26 25 24 24 25 27 28 29 33 33 29 29 30 32 33 30 26 23 23 24 21 20 21 21 23 24 24 25 24 24 24
8 7 1 5 7 8 10 9 9 10 7 5 8 11 10 9 9 9 10 10 9 9 9 8 9 10 9 11 14 14 13 15 17 19 21 23 24 22 20 19 18 18 19 16 14 14 15 18 22 24 25 26 27 29 30 27 25 25 25 26 27 28 28 30 31 28 27 29 30 30 30 27 24 25 26 22 21 23 23 23 23 23 23 23 24 23
7 9 8 9 12 11 11 11 12 13 11 7 6 8 7 6 7 8 8 7 8 10 9 10 13 12 10 9 11 16 17 16 16 16 17 20 23 23 20 19 19 19 19 16 14 15 17 18 18 21 24 25 27 29 30 28 25 25 26 26 27 29 30 31 31 29 27 27 28 29 30 28 26 27 27 23 22 24 25 24 23 23 24 24 24 23
4 9 10 10 13 10 8 10 11 14 16 13 9 7 5 6 6 7 7 7 9 9 8 12 15 13 11 10 10 15 18 17 16 15 16 17 17 18 18 18 19 19 18 17 16 16 18 19 19 20 23 24 25 27 28 27 26 25 26 26 28 29 29 30 30 28 27 27 26 26 27 27 27 27 26 24 23 25 25 23 22 23 25 25 25 25
3 6 6 4 6 5 5 8 9 10 12 13 11 9 7 7 6 6 7 6 8 8 8 12 13 10 10 12 13 13 14 16 16 14 14 14 14 15 16 16 17 17 16 16 14 13 13 16 18 20 23 24 25 26 26 26 27 26 26 26 27 28 29 31 31 29 28 28 26 24 25 26 27 27 26 25 25 26 24 22 21 23 25 25 26 26
4 6 6 4 4 6 6 8 9 9 8 9 10 10 9 7 5 6 8 7 8 8 8 9 10 9 9 10 15 15 12 12 14 12 10 10 12 14 14 14 14 14 13 12 11 11 10 12 15 18 21 23 25 26 27 28 28 27 26 26 26 27 29 32 32 30 29 28 26 26 27 27 27 28 27 26 26 26 24 21 21 23 25 25 25 25
4 4 7 7 6 9 10 7 9 11 8 8 9 10 10 9 8 7 8 8 8 8 8 7 8 10 8 6 11 15 11 8 10 11 10 10 12 12 12 11 10 10 9 8 8 9 9 9 12 15 19 22 24 26 28 28 28 28 28 27 26 26 28 30 31 31 30 28 27 28 29 28 28 28 27 27 28 27 23 21 22 24 25 25 25 25
5 3 7 10 9 13 13 7 5 4 5 6 8 10 10 10 9 9 8 8 8 10 10 8 9 9 6 6 10 10 9 7 9 11 10 11 11 9 9 8 7 7 6 5 6 7 8 9 10 12 16 20 23 25 28 29 29 30 30 27 26 27 28 30 31 32 32 31 29 28 28 28 28 28 28 28 29 27 24 23 24 25 26 25 26 26
4 2 7 10 10 13 13 6 6 2 2 6 9 10 11 11 11 11 9 7 7 9 9 8 9 10 4 2 7 3 9 9 9 10 8 8 9 7 8 7 5 4 3 3 4 6 8 9 10 11 14 19 22 24 27 28 29 29 30 29 28 28 28 30 32 32 32 31 29 29 28 28 28 30 29 28 30 28 25 24 24 25 25 25 25 25
3 3 5 8 9 8 7 4 4 3 3 7 9 10 12 14 15 13 11 8 7 10 11 8 9 9 3 3 4 5 7 9 9 7 5 6 8 7 7 6 4 3 2 3 4 6 8 10 10 10 12 17 21 24 26 27 28 29 30 30 30 29 28 29 30 30 31 31 30 30 30 29 30 31 30 30 30 29 26 25 25 25 26 25 25 25
4 4 5 6 8 8 7 4 1 2 5 6 9 12 14 17 18 14 9 8 9 11 12 10 9 7 3 5 8 8 6 7 7 4 5 7 7 5 5 5 4 3 3 3 4 6 8 10 11 10 11 14 18 22 25 26 28 29 29 30 30 29 28 29 28 28 30 32 32 32 31 32 33 33 31 31 31 29 28 27 26 26 26 25 25 26
3 6 8 10 10 10 12 10 2 2 4 7 9 13 16 18 19 15 10 10 9 8 10 12 12 11 7 6 7 9 10 7 4 4 9 10 5 2 1 2 2 3 4 4 5 6 7 9 11 12 13 14 16 20 23 26 27 28 29 29 29 28 28 28 28 27 28 31 35 35 33 34 35 34 33 33 31 30 29 29 27 25 25 25 25 26
3 7 10 13 15 15 17 17 9 5 8 9 10 13 16 18 20 18 14 13 10 8 10 11 12 13 12 10 9 10 13 11 6 7 8 6 6 10 9 6 6 4 4 5 6 7 8 9 10 11 14 15 16 18 21 24 27 28 29 29 29 28 28 28 28 29 31 33 36 36 35 35 35 34 34 34 33 32 31 29 27 24 24 25 26 27
3 7 9 10 14 16 16 19 17 10 9 10 11 13 15 16 19 21 19 16 14 12 10 9 11 14 13 13 13 13 12 11 10 12 12 11 13 14 13 11 10 7 6 6 7 8 9 10 10 11 13 14 16 18 21 24 26 27 28 29 29 29 28 26 26 29 32 34 36 36 35 36 37 36 35 34 34 35 32 29 28 25 24 26 28 28
3 5 6 6 10 15 15 16 16 13 10 10 12 14 14 14 16 20 20 19 19 18 15 14 15 14 11 11 13 14 12 11 14 18 18 16 16 16 15 14 12 10 10 8 7 9 11 12 12 13 13 14 16 18 22 24 26 28 29 29 29 30 29 28 27 29 32 35 36 35 35 35 35 36 36 35 36 37 33 30 29 26 26 28 29 28
4 4 4 3 7 12 11 10 11 10 9 8 10 12 13 13 14 18 19 18 18 18 19 18 18 15 12 11 13 15 14 13 17 20 20 18 18 17 16 14 13 13 12 12 10 10 12 14 14 14 15 16 16 18 22 25 27 29 31 30 30 31 31 30 29 29 32 35 37 36 36 35 35 36 38 38 39 39 34 30 30 28 27 29 30 30
4 5 5 5 8 8 4 5 8 7 7 9 10 10 12 13 12 14 16 16 16 17 17 17 16 14 11 11 14 16 16 16 18 20 19 19 19 18 16 15 16 16 15 15 14 12 13 15 16 15 16 17 18 19 22 26 28 30 32 32 32 31 31 32 31 30 31 34 37 37 37 38 37 37 39 40 41 39 34 31 31 29 29 30 31 31
5 5 5 5 7 6 1 2 5 5 6 6 5 6 10 13 13 14 15 16 18 16 13 12 13 12 9 9 11 12 13 14 15 17 18 18 18 18 18 19 20 20 19 19 18 16 15 16 17 17 17 18 19 21 23 26 28 30 33 35 34 33 33 33 32 32 31 31 35 37 36 39 40 39 40 41 41 39 35 33 32 30 31 32 32 32
7 8 6 4 5 6 3 1 2 4 4 1 5 8 9 10 13 15 15 16 17 16 13 13 14 13 11 10 10 9 11 13 14 16 18 18 19 20 22 23 23 23 22 21 20 18 16 16 17 17 17 18 19 21 23 26 29 31 33 36 36 35 35 33 32 33 33 32 36 37 36 39 42 41 41 43 42 38 36 35 32 31 32 33 33 33
8 8 6 3 4 6 4 2 3 3 1 2 3 6 11 13 14 16 17 17 18 18 18 19 19 18 16 14 15 16 16 18 19 21 22 22 23 24 25 26 25 24 23 21 19 18 17 16 17 19 19 19 20 22 23 26 29 30 31 33 35 35 35 33 32 33 34 34 37 39 38 41 44 44 45 45 42 38 36 35 33 32 33 33 34 34
8 8 5 4 5 5 4 3 3 1 1 2 4 6 10 12 11 11 14 16 18 18 18 18 19 19 17 17 20 22 22 24 24 24 26 27 26 24 23 23 22 20 19 17 17 17 17 17 18 20 21 21 22 24 25 27 29 30 30 31 33 33 33 33 32 34 36 37 38 39 41 43 44 44 46 45 41 38 37 34 33 34 34 34 35 35
6 7 6 4 3 4 6 6 3 1 1 1 3 6 8 9 9 9 9 11 12 14 16 17 18 18 16 18 20 20 21 20 18 20 24 24 19 15 15 16 17 18 18 18 18 18 19 20 21 22 24 25 26 27 27 28 30 31 32 32 33 33 33 33 32 33 37 40 41 42 44 45 44 43 44 43 41 39 37 35 34 34 36 36 36 35
7 6 6 5 3 4 7 7 4 2 1 1 3 8 12 12 10 8 7 8 7 7 9 11 14 15 14 15 16 16 15 13 11 12 12 9 6 6 11 15 17 19 20 21 20 21 22 22 23 25 26 27 30 30 29 29 31 33 33 34 34 34 35 35 34 33 36 40 43 45 46 44 42 41 43 43 41 39 37 36 35 36 38 38 36 35
10 6 5 6 6 7 8 8 6 3 2 4 8 14 20 17 5 4 3 5 2 2 5 7 10 12 11 12 12 11 9 9 9 8 6 4 7 13 17 19 19 19 20 21 21 23 23 23 24 26 26 27 31 32 30 30 33 35 35 35 36 36 37 37 37 36 38 40 42 44 45 42 40 40 42 43 42 39 38 37 37 39 40 38 37 36
13 8 6 9 9 10 10 6 3 2 2 5 12 19 23 15 1 5 2 2 3 9 13 11 10 12 12 12 12 8 8 9 10 9 10 14 19 21 21 21 21 21 21 22 22 23 22 21 23 25 26 28 31 32 32 32 34 36 36 36 38 39 38 37 35 35 37 38 39 41 42 41 39 39 42 44 42 39 38 38 39 41 41 39 37 36
12 9 9 11 11 11 11 7 3 1 2 5 15 24 22 11 2 2 3 3 6 14 20 18 15 14 13 13 12 10 11 13 14 16 19 23 25 24 22 20 20 20 21 22 22 20 19 19 21 24 26 28 29 30 33 35 37 38 38 37 38 38 35 34 33 33 34 35 38 40 40 39 38 39 42 43 41 39 38 38 41 43 41 38 37 38
10 9 9 11 10 10 10 8 7 2 1 9 22 24 17 7 1 4 10 13 14 17 20 21 19 16 15 15 14 14 16 18 20 21 23 24 24 24 22 21 20 19 18 18 18 16 17 19 20 23 27 28 28 31 35 36 38 39 39 39 39 37 33 32 33 33 33 35 38 40 38 37 37 37 39 41 40 39 37 38 41 42 41 39 39 39
8 8 9 9 8 7 7 9 8 3 6 22 26 14 8 9 9 13 18 21 22 19 16 16 14 13 14 15 14 15 17 19 22 22 23 23 23 23 22 20 19 18 16 15 14 15 17 18 20 23 27 28 29 32 35 37 38 39 38 37 35 33 32 32 32 32 32 35 39 40 38 37 37 37 39 40 40 37 35 38 42 43 41 40 39 38
6 7 6 5 5 5 6 8 6 3 12 27 22 9 11 20 22 22 21 20 24 26 21 15 12 12 12 13 14 15 16 19 22 22 21 22 21 20 18 16 17 17 14 11 12 14 16 18 21 24 26 29 31 33 35 36 37 36 35 33 31 31 31 31 31 32 33 35 37 38 37 37 36 35 37 40 40 36 34 38 42 44 42 41 39 38
8 8 6 5 5 6 4 5 8 10 18 26 22 19 25 32 33 32 29 23 26 31 27 17 12 10 9 9 12 14 14 16 17 16 15 14 11 11 13 13 14 13 8 6 8 11 14 16 19 22 25 28 30 32 34 35 34 34 32 30 31 32 32 31 32 34 36 36 35 35 37 37 36 36 39 43 43 37 35 38 44 45 44 43 42 42
11 13 9 7 8 9 6 6 8 15 24 28 25 26 31 34 34 33 31 28 31 37 34 21 12 12 10 6 6 8 8 11 13 11 8 6 6 8 11 14 15 12 6 6 7 3 7 12 14 18 24 27 27 28 30 31 31 31 29 29 31 31 32 32 33 34 37 38 37 38 40 40 41 41 41 42 39 34 34 39 44 46 45 43 44 44
12 16 12 9 11 11 8 7 13 21 25 26 24 28 32 33 34 33 31 31 33 37 39 33 28 26 22 18 14 11 11 13 13 9 7 9 9 10 12 14 17 15 9 7 9 8 3 6 10 16 21 23 24 24 25 25 26 25 25 27 29 30 31 32 33 34 37 41 43 45 45 43 43 42 39 38 37 35 35 38 42 45 46 45 46 48
12 15 12 10 11 11 8 11 21 26 25 24 26 30 32 33 34 35 34 34 34 36 39 41 42 40 36 32 28 22 19 19 15 12 12 16 16 15 14 13 15 14 11 6 6 8 8 5 8 14 17 18 18 18 19 20 21 20 22 26 28 30 32 34 34 36 37 40 44 48 48 45 43 41 40 39 39 39 41 42 43 45 47 46 46 49
13 13 11 10 11 10 7 13 22 22 18 22 30 33 32 31 32 34 35 35 36 38 38 39 41 40 38 37 34 30 28 27 21 16 17 21 23 21 18 15 15 15 15 11 7 7 10 8 4 7 9 11 13 13 15 18 18 19 22 25 27 32 36 36 36 38 40 41 43 45 46 46 43 42 41 41 39 41 44 45 45 46 46 45 45 47
11 9 9 9 7 7 9 16 20 14 8 17 29 31 29 30 30 31 32 32 33 34 35 35 38 39 38 36 34 33 34 34 29 25 24 26 27 25 22 19 16 16 17 16 13 11 10 9 7 3 2 3 6 9 13 15 17 19 23 24 25 31 37 38 37 39 41 42 43 45 46 46 44 43 43 40 40 42 45 45 45 45 44 43 43 45
11 8 9 9 6 9 15 20 22 15 10 18 27 27 25 27 29 29 29 30 30 31 31 31 35 37 38 38 36 33 32 33 33 32 30 29 27 25 24 23 19 16 16 16 16 15 13 11 8 5 2 2 3 6 8 11 13 16 20 24 25 28 33 37 39 40 41 42 45 46 46 46 47 46 43 40 40 45 49 48 46 43 40 40 40 41
Wind_Direction
259 259 242 244 261 262 258 261 266 278 270 261 265 262 262 261 256 258 254 248 255 260 251 245 249 249 242 239 235 233 230 229 232 230 228 229 228 228 228 229 228 226 226 222 221 228 232 232 234 231 227 226 218 208 202 198 197 201 208 214 213 207 203 201 198 197 195 191 191 194 197 199 196 195 196 195 191 188 192 194 192 192 192 189 186 188
242 258 254 254 278 285 273 265 261 264 258 251 254 254 252 251 253 253 249 245 243 252 257 252 251 251 246 242 236 235 239 239 236 231 227 228 228 228 230 230 230 229 227 224 218 224 231 232 235 230 218 217 211 201 201 201 197 199 206 212 213 208 204 202 200 198 196 194 192 193 195 195 194 195 194 194 191 188 192 192 192 193 192 191 191 192
238 246 254 261 275 269 259 255 251 251 252 251 250 253 253 251 254 253 241 235 242 251 253 252 254 253 248 245 239 233 238 240 238 237 233 230 230 228 228 228 229 228 226 225 218 217 228 232 233 225 210 208 205 198 200 201 196 196 202 208 211 209 206 202 198 199 199 194 192 193 193 189 191 196 193 191 192 190 189 189 192 195 194 196 197 195
257 260 256 262 244 240 243 238 242 246 244 245 244 249 249 247 254 251 224 212 233 249 256 260 259 256 252 250 245 237 239 242 240 240 237 233 233 230 228 227 226 226 224 225 220 214 222 228 228 225 216 208 203 200 202 200 197 196 201 206 207 206 205 201 196 200 200 190 188 193 192 186 188 195 191 188 193 194 189 189 193 196 196 199 201 199
268 281 258 220 231 236 245 239 238 244 245 241 239 248 256 258 262 264 261 260 258 253 252 257 260 256 247 246 244 235 235 240 240 241 238 234 234 233 233 230 227 226 224 224 222 216 215 221 225 227 223 215 211 216 217 210 201 198 203 206 204 200 200 199 194 199 201 191 188 192 190 186 188 193 192 189 193 196 191 189 193 196 197 199 203 203
265 272 236 233 235 233 245 246 240 244 256 252 242 244 257 271 271 265 270 270 265 252 235 231 244 249 237 239 240 232 230 232 232 235 235 233 232 231 232 232 229 227 225 224 224 220 213 215 222 227 226 220 216 219 218 212 205 202 205 205 201 193 194 197 194 198 205 199 195 196 191 188 189 192 194 192 194 197 193 192 195 197 197 199 203 205
256 253 225 239 244 236 240 245 242 241 252 262 249 234 244 256 256 251 255 254 251 263 242 216 240 257 240 235 232 227 229 229 228 230 232 232 230 228 228 229 228 227 226 225 224 223 217 212 215 222 226 224 221 217 210 208 206 201 203 203 199 192 192 198 197 200 207 206 202 201 196 191 190 193 195 193 194 197 194 194 197 198 197 199 203 206
212 224 222 229 239 238 238 240 233 223 241 262 160 177 246 248 248 245 245 245 248 265 263 217 237 262 256 239 225 220 225 226 227 228 229 229 227 226 226 226 226 226 226 226 225 224 220 214 211 215 223 226 224 218 210 207 205 203 201 199 199 196 195 200 199 201 208 209 206 203 197 192 193 194 195 194 194 196 197 196 197 199 198 199 203 205
173 220 229 231 239 241 242 245 229 213 233 257 223 231 257 254 255 251 245 246 247 254 252 226 226 247 253 242 231 225 227 227 226 228 229 228 225 225 225 224 224 225 226 227 226 225 222 217 215 217 222 224 220 219 223 219 215 214 204 196 199 198 197 200 201 203 208 211 210 206 198 193 193 194 194 195 195 198 202 200 199 201 200 200 204 206
264 265 262 257 252 249 250 250 238 223 232 252 251 250 253 249 250 248 245 247 243 244 246 234 226 238 249 240 230 225 227 229 227 228 229 227 226 226 224 222 222 224 225 226 226 226 224 219 220 223 223 221 217 220 228 225 221 216 203 202 205 202 202 202 202 206 209 211 212 209 198 193 193 193 193 194 197 201 203 201 201 205 203 203 206 207
269 270 267 257 252 256 263 258 246 236 239 250 252 247 246 245 243 240 241 243 244 243 241 237 234 239 249 241 231 227 222 224 228 228 226 225 225 221 218 219 221 223 223 224 224 224 224 220 221 225 221 217 214 213 217 219 218 210 201 206 207 205 207 202 202 209 211 212 215 211 199 194 195 192 192 194 199 203 203 200 203 206 205 205 209 209
265 261 250 240 243 248 257 258 248 237 236 242 244 245 250 245 238 241 238 231 240 244 235 230 230 236 245 243 238 239 227 223 230 232 228 223 215 210 213 218 223 224 221 222 222 222 222 219 217 219 214 209 205 206 210 213 212 206 203 205 204 206 206 202 209 212 210 212 216 213 200 195 197 193 193 197 200 203 201 200 202 204 205 206 208 210
277 266 251 239 235 235 243 249 243 234 229 231 233 236 247 249 241 243 240 230 235 242 238 231 229 234 242 242 244 248 240 231 233 234 234 231 222 219 219 216 220 223 219 219 220 220 220 217 213 214 214 206 199 203 207 205 204 204 206 205 204 208 205 207 213 210 207 212 215 215 206 198 200 196 196 197 197 202 201 200 203 204 205 206 207 212
289 272 231 228 222 215 229 244 240 233 221 222 227 226 236 247 244 243 244 240 240 242 238 232 234 242 245 239 239 244 245 240 236 234 234 237 237 237 230 218 217 218 214 216 219 218 218 215 211 215 220 210 200 205 208 203 202 200 203 203 204 207 206 208 209 204 207 210 213 218 213 202 202 199 198 197 197 202 201 201 205 205 206 209 212 216
294 296 186 199 187 182 211 234 249 259 241 225 227 231 238 246 248 250 254 253 254 257 244 229 227 236 239 237 235 235 236 235 235 236 239 241 239 238 234 226 223 220 217 221 223 221 219 216 212 218 224 214 203 209 209 203 203 200 201 203 203 204 205 207 207 203 205 206 210 218 216 206 202 201 202 199 198 203 202 203 206 207 211 214 217 220
286 297 207 201 222 189 215 232 239 255 259 232 226 234 239 241 248 259 267 271 276 277 259 241 237 238 238 246 245 238 230 228 228 230 234 237 233 229 227 225 225 226 229 233 232 228 223 217 212 214 221 214 205 208 207 202 203 202 201 203 203 202 202 205 206 203 202 204 209 214 214 208 201 203 206 201 200 204 205 206 208 210 213 215 216 218
279 291 307 204 221 221 235 240 222 230 250 239 228 233 237 246 256 261 263 264 263 262 254 245 249 248 244 250 248 239 230 225 224 223 226 229 227 225 222 219 221 227 234 235 233 229 224 219 213 209 211 209 204 206 208 203 200 202 202 202 203 202 202 204 204 202 201 203 206 209 212 209 203 205 208 203 202 206 207 208 210 211 211 212 214 214
285 281 276 253 248 241 238 243 232 229 241 252 245 238 239 253 259 257 257 253 247 253 251 241 244 247 245 247 239 228 225 227 226 222 222 224 223 223 220 216 220 227 231 233 231 229 223 219 214 207 204 205 204 207 210 205 200 201 203 203 203 202 202 203 202 201 201 199 202 207 209 208 204 206 207 203 204 209 209 208 209 210 209 210 213 213
292 283 277 262 262 256 226 235 244 231 229 240 259 262 248 243 241 235 240 246 244 249 254 247 245 245 245 248 240 224 216 218 221 218 220 221 218 217 215 215 218 220 221 224 224 223 221 217 213 207 202 200 202 204 207 204 201 202 204 204 205 203 202 203 201 200 200 198 201 205 206 205 205 206 205 201 206 211 209 205 206 209 209 210 213 215
262 267 283 265 246 244 214 226 245 235 221 231 252 258 244 243 252 239 231 241 248 250 257 254 249 245 245 248 247 234 213 209 210 207 212 215 209 208 208 205 205 204 206 211 211 206 209 213 212 207 203 199 199 200 201 201 201 203 204 204 204 203 202 204 202 200 199 199 201 201 203 203 203 205 204 201 206 210 204 200 204 208 210 212 214 215
247 238 260 270 227 240 241 224 239 251 228 218 232 235 228 228 239 246 241 240 248 251 253 256 255 248 240 241 240 233 220 210 203 193 195 195 190 193 191 189 190 190 192 196 199 198 195 204 209 207 204 200 198 198 198 199 200 202 204 204 203 201 202 204 203 200 199 199 200 201 202 202 201 203 202 201 206 208 201 198 203 208 211 212 212 211
223 230 247 264 254 250 254 236 247 267 256 229 232 232 231 228 224 236 239 229 235 248 247 252 261 252 243 265 256 232 217 209 188 172 170 171 168 168 166 168 171 173 182 188 195 200 194 198 206 206 204 200 197 198 198 199 200 201 203 204 203 202 202 204 202 200 199 198 199 202 201 200 200 201 199 200 205 207 200 197 202 209 211 211 210 209
213 255 251 257 256 258 268 253 219 265 285 269 261 248 242 237 227 232 238 229 228 238 241 246 261 259 250 300 288 235 184 167 163 158 163 163 158 159 159 159 157 157 174 190 199 206 204 202 204 205 205 201 198 197 197 198 200 201 202 202 202 203 203 203 202 201 201 200 200 201 200 198 199 201 199 199 202 204 199 197 202 210 213 211 210 210
204 247 255 263 265 261 263 232 167 128 333 267 256 246 242 240 233 233 242 247 241 237 237 235 248 252 229 338 308 235 150 149 157 158 161 158 156 170 172 166 166 169 182 201 211 216 210 208 210 210 208 204 200 198 197 198 199 201 202 202 203 204 202 201 202 201 200 201 201 199 198 197 199 201 199 198 200 200 199 199 202 208 212 212 210 210
202 239 245 275 289 274 255 213 184 194 224 240 243 237 237 241 241 239 238 243 245 240 238 238 246 249 192 140 257 229 165 163 162 153 157 159 161 175 179 175 181 188 213 237 234 233 223 217 219 219 214 207 202 200 198 198 198 199 201 202 203 203 202 201 201 200 199 202 203 200 198 198 199 199 198 198 199 197 197 200 203 208 212 211 209 209
219 250 224 261 287 287 288 302 299 215 235 242 237 232 233 234 237 239 234 233 235 232 233 237 242 247 203 180 229 249 226 187 169 175 209 190 172 170 177 184 193 204 243 266 256 248 238 227 223 223 223 214 205 202 199 197 197 198 199 201 201 201 202 200 199 198 199 202 205 203 200 201 202 200 198 200 199 195 197 202 205 208 211 209 208 209
228 260 234 248 262 270 286 298 332 144 233 247 233 229 229 228 232 236 232 232 235 233 235 235 236 244 241 210 221 256 255 227 196 230 225 203 196 306 289 210 238 240 249 271 266 253 245 237 231 225 224 223 213 205 201 199 199 198 197 199 199 199 201 200 199 199 197 200 205 203 201 203 203 200 198 198 198 195 198 204 207 207 208 210 209 209
241 270 249 252 252 255 274 285 278 212 216 240 243 237 233 229 230 231 231 235 239 244 244 237 236 243 244 231 224 240 248 248 262 272 257 251 295 317 319 308 298 272 245 255 261 256 250 247 247 236 227 227 221 209 203 202 200 199 197 197 196 198 199 198 200 200 199 202 205 203 202 204 202 200 199 200 203 201 200 206 210 206 205 210 210 210
250 276 267 265 257 256 268 279 280 261 235 237 240 245 248 239 229 227 232 237 236 242 251 252 248 246 245 246 243 243 251 263 273 276 282 292 300 305 308 304 301 290 269 263 258 256 255 254 258 254 240 234 228 215 206 203 201 199 198 196 195 197 198 197 198 200 201 204 205 203 204 205 203 202 203 204 207 207 205 209 211 204 204 210 211 210
239 271 277 272 267 272 274 277 282 284 269 244 233 244 255 250 233 225 229 234 236 243 253 261 264 260 252 252 250 250 261 276 276 274 279 287 293 299 300 297 295 289 281 277 263 252 258 261 259 257 250 241 233 221 209 205 202 199 198 197 196 197 198 198 198 199 201 204 204 203 202 202 201 203 204 204 207 210 210 210 209 203 204 211 212 210
231 266 293 280 276 283 284 283 289 293 287 265 245 245 250 248 236 223 225 232 236 243 248 253 262 264 257 255 255 257 263 267 266 267 271 280 288 292 291 289 288 285 281 280 275 259 256 261 259 254 250 245 238 226 215 207 204 201 200 198 196 195 197 198 197 199 202 204 204 202 199 197 197 201 203 204 209 213 210 208 207 204 204 209 210 209
242 273 289 284 288 295 301 301 300 300 291 273 256 246 242 239 233 223 224 229 231 236 242 245 251 255 251 249 249 250 251 249 252 259 264 272 279 281 282 285 285 285 282 279 278 266 253 254 256 253 248 245 240 232 220 211 206 203 200 198 197 196 196 198 199 201 202 203 203 202 199 198 198 200 202 205 211 213 208 206 206 204 204 207 209 208
250 274 290 291 295 305 331 297 299 299 280 267 270 271 251 237 232 230 227 229 233 237 237 236 241 249 254 253 248 247 246 244 246 252 258 267 274 275 279 283 283 282 280 277 273 267 253 246 250 252 249 245 241 235 226 215 209 205 202 201 200 197 195 197 200 201 200 201 202 200 198 199 201 202 203 207 212 212 208 207 206 203 202 205 206 207
267 272 288 290 285 298 315 189 257 277 272 319 12 337 303 269 246 236 230 229 232 235 241 248 253 257 260 261 260 258 256 258 261 263 265 269 273 277 280 281 279 278 276 273 268 261 248 239 242 247 248 247 243 238 230 221 213 208 206 206 203 199 196 196 199 200 198 200 203 199 196 200 203 202 202 207 211 212 210 208 204 201 202 203 204 206
289 289 288 274 266 286 295 224 230 260 281 14 354 309 302 296 273 252 244 240 234 233 240 247 253 258 260 263 268 271 272 275 276 273 271 269 269 273 276 276 276 275 272 268 262 254 246 243 242 241 244 250 250 241 232 224 217 210 205 203 200 196 195 197 201 200 197 200 203 199 197 202 204 202 203 209 213 214 213 209 202 198 200 203 205 207
284 306 297 281 277 283 291 272 255 250 291 305 304 291 295 300 286 262 252 247 241 238 240 245 252 257 260 263 266 269 273 277 276 272 269 267 266 265 266 270 273 274 271 266 262 257 254 250 245 241 244 252 251 241 230 223 216 209 203 199 195 194 195 197 200 200 199 202 202 198 199 206 209 209 211 214 215 214 212 207 200 198 199 202 206 209
288 312 314 305 285 287 305 301 284 230 198 230 292 303 302 295 281 270 266 259 249 240 240 246 254 257 261 264 267 271 276 277 275 270 265 263 259 252 254 267 276 277 275 271 267 265 262 256 251 248 248 251 247 237 226 219 213 206 202 198 194 194 194 195 197 198 200 203 203 202 207 212 214 214 215 214 212 211 210 205 200 199 200 204 208 208
320 313 307 306 295 297 314 319 324 333 2 40 324 317 322 314 285 261 270 277 264 246 245 255 262 264 266 269 270 276 280 272 265 266 258 245 247 264 272 280 282 276 274 273 271 268 265 260 257 253 249 247 241 232 221 215 210 205 202 198 194 194 195 195 196 197 200 204 207 210 214 216 216 215 215 213 211 210 208 204 201 200 202 206 208 204
348 329 299 311 321 326 330 332 337 340 355 346 327 326 332 330 305 184 250 276 268 302 298 289 281 275 272 271 272 273 269 262 261 256 232 239 296 301 293 289 284 277 273 272 271 269 267 261 256 252 246 240 234 226 216 210 207 204 201 197 194 195 196 197 198 201 204 207 209 212 215 216 216 216 214 212 209 208 206 203 201 202 203 206 206 202
359 352 342 347 343 337 333 327 328 330 293 313 325 331 335 339 64 155 232 293 352 316 302 292 282 274 267 266 269 261 243 250 264 266 271 293 302 299 292 288 284 280 277 274 271 269 266 257 250 246 240 233 228 220 211 206 203 201 199 196 195 196 197 198 199 203 206 206 208 213 216 217 216 215 213 211 207 206 205 203 202 203 203 205 205 201
355 351 349 353 346 336 336 335 338 321 229 311 333 333 332 338 102 172 259 255 272 281 283 284 283 279 275 266 260 256 251 259 277 286 289 295 295 290 288 288 285 282 279 273 268 263 256 246 242 241 235 229 224 215 206 202 200 198 196 195 195 195 196 198 200 202 203 203 207 213 216 216 216 215 212 210 206 204 206 205 204 203 202 203 202 200
352 346 346 350 342 334 339 341 342 4 134 334 335 332 331 335 333 307 311 303 282 264 265 273 272 269 274 269 259 262 267 273 282 287 287 287 285 285 288 286 281 281 279 272 264 252 244 242 238 234 230 225 217 207 201 198 197 196 194 194 195 196 196 197 200 203 202 202 208 213 215 216 217 215 212 209 205 204 207 208 205 203 202 203 201 200
352 343 339 346 338 326 335 347 354 21 337 329 329 332 348 346 324 317 321 320 317 310 298 290 281 273 279 279 271 269 272 276 279 281 283 283 280 281 284 285 286 287 283 274 259 242 241 242 234 226 222 215 206 199 196 195 194 193 193 193 193 194 195 197 199 200 200 202 208 212 213 215 214 211 210 208 204 204 208 208 205 204 203 202 200 200
9 357 335 337 344 334 342 354 351 310 319 327 332 351 2 353 348 343 339 331 329 334 332 319 307 297 289 291 295 288 279 275 274 272 274 276 275 280 289 297 297 292 286 278 256 241 242 238 225 217 210 201 197 195 192 191 190 191 192 192 191 192 194 197 199 199 199 202 206 208 210 212 212 211 210 206 202 204 209 209 205 204 204 203 202 202
0 353 319 296 315 324 306 283 281 299 326 338 352 10 5 3 6 6 2 355 349 350 350 341 333 333 318 302 302 295 285 285 284 274 270 274 282 301 312 312 307 297 285 280 267 245 233 222 209 202 197 193 192 191 189 188 188 190 190 189 189 191 193 195 198 199 199 203 206 207 208 208 207 208 208 204 200 202 207 208 206 205 205 206 206 205
342 346 335 310 319 328 306 275 298 330 339 344 359 15 13 9 8 7 7 7 4 2 1 7 28 30 14 353 325 311 315 325 316 295 288 302 324 344 346 341 341 341 321 301 317 294 207 199 193 190 189 187 187 187 186 187 189 191 190 187 187 190 192 194 198 199 200 203 205 205 204 202 201 203 204 203 202 204 208 210 208 207 207 209 208 205
345 352 345 328 335 341 335 344 354 346 337 339 355 10 13 12 9 7 7 9 9 7 8 17 31 33 27 25 20 10 13 6 343 327 1 19 8 8 12 0 353 359 359 335 345 11 80 161 184 192 189 185 186 188 187 186 189 191 189 187 189 191 191 192 196 198 199 200 200 200 200 200 200 200 200 201 204 208 211 212 212 211 211 211 208 205
342 346 342 333 337 334 326 349 351 339 329 336 351 0 3 3 5 8 10 12 14 14 15 21 27 26 22 19 17 17 25 23 4 355 22 33 26 21 22 8 356 8 25 16 353 11 35 80 164 187 189 185 186 188 186 186 188 189 188 190 193 194 193 194 198 201 200 199 198 198 199 201 201 197 193 193 200 208 211 211 213 216 216 214 210 206
336 338 341 331 325 324 330 349 347 338 328 334 343 351 357 357 359 5 11 12 14 15 15 20 25 26 23 18 15 16 21 23 17 12 25 36 35 29 26 19 14 26 38 38 27 22 24 36 92 156 173 177 178 182 185 186 188 189 190 192 195 197 199 202 204 202 200 199 200 200 201 202 201 197 193 192 198 208 212 211 214 219 220 219 215 209
346 342 343 334 327 329 332 339 343 338 315 323 333 342 352 357 0 5 6 7 10 9 8 13 20 23 25 23 20 20 21 23 24 27 33 39 38 35 33 29 26 32 40 42 39 36 31 27 30 50 129 166 177 186 191 191 188 189 193 194 195 200 205 208 204 199 198 199 201 202 203 203 199 196 196 196 198 204 210 213 217 221 224 225 220 213
356 345 334 329 312 297 305 322 334 331 305 314 327 336 345 355 2 6 4 5 7 6 6 11 15 18 22 24 26 27 25 23 26 32 34 36 40 42 42 38 33 33 39 44 44 42 41 38 33 27 358 303 258 225 214 205 194 192 198 199 195 199 208 210 205 199 198 200 202 203 203 202 197 195 198 200 201 204 208 211 215 218 224 228 224 215